Location: Coopersdale
(40.3556°N, 78.9372°W)
Time: 21:54:01
(UTC+00:00)

Courier 1B - Visible Passes

Search period start: 21 January 2021 00:00
Search period end: 31 January 2021 00:00
Orbit: 962 x 1209 km, 28.3° (Epoch: 21 January)

Date Brightness Start Highest point End Pass type
(mag) Time Alt. Az. Time Alt. Az. Time Alt. Az.
21 Jan 9.7 09:00:03 15° SE 09:00:03 15° SE 09:01:28 10° SE visible
21 Jan 9.4 10:46:57 13° SW 10:49:13 15° SSW 10:52:53 10° SSE visible
22 Jan 9.3 09:56:37 18° S 09:56:37 18° S 10:00:02 10° SSE visible
23 Jan 9.9 09:06:19 12° SSE 09:06:19 12° SSE 09:06:56 10° SSE visible
24 Jan 9.6 10:02:56 11° SSW 10:02:56 11° SSW 10:03:55 10° S visible
29 Jan 9.9 01:43:18 10° SSW 01:43:48 11° SSW 01:43:48 11° SSW visible
30 Jan 9.6 00:50:32 10° S 00:53:34 14° SSE 00:53:34 14° SSE visible
